Regional Weather Roundup
Issued by NWS Green Bay, WI

Home | Current Version | Previous Version | Graphics & Text | Print | Product List | Glossary Off
Versions: 1 2 3 4 5 6 7 8 9 10 11 12 13 14 15 16 17 18 19 20 21 22 23 24 25 26 27 28 29 30 31 32 33 34 35 36 37 38 39 40 41 42 43 44 45 46 47 48 49 50

199
ASUS43 KGRB 172311
RWRGRB

NORTH-CENTRAL AND NORTHEAST WISCONSIN REGIONAL WEATHER ROUNDUP
NATIONAL WEATHER SERVICE GREEN BAY WI
600 PM CDT TUE OCT 17 2017

WIZ005-009-010>012-018-019-180000-
NORTH CENTRAL WISCONSIN

CITY           SKY/WX    TMP DP  RH WIND       PRES   REMARKS
IRONWOOD       CLEAR     66  39  37 S5        29.92
MANITOWISH WTR CLEAR     61  41  46 S3        29.94S
ARBOR VITAE    CLEAR     62  44  51 S5        29.95S
EAGLE RIVER    CLEAR     61  40  45 S3        29.96S
LAND O LAKES   CLEAR     62  39  44 CALM      29.97F
RHINELANDER    CLEAR     63  43  48 S6        29.97F
PHILLIPS       CLEAR     63  43  47 S5        29.95S
ANTIGO         CLEAR     58  47  66 S7        29.99S
TOMAHAWK       CLEAR     61  43  51 CALM      29.97S
MERRILL        CLEAR     64  46  50 SW5       29.98S
$$

WIZ013-073-180000-
NORTHEAST WISCONSIN

CITY           SKY/WX    TMP DP  RH WIND       PRES   REMARKS
IRON MOUNTAIN  CLEAR     61  39  44 S3        29.95S
MARINETTE      CLEAR     60  48  64 SW6       30.00R
OCONTO         CLEAR     60  49  69 S5        29.99S
$$

WIZ017-030-035>037-045-180000-
CENTRAL WISCONSIN

CITY           SKY/WX    TMP DP  RH WIND       PRES   REMARKS
MEDFORD        CLEAR     60  45  56 S7        29.98S
WAUSAU         CLEAR     63  47  55 S9        29.97S
MOSINEE        MOCLDY    59  46  63 S7        30.00S
MARSHFIELD     CLOUDY    61  43  51 S6        29.98S
WISC RAPIDS    CLOUDY    63  49  60 S5        30.01R
STEVENS POINT  CLOUDY    61  46  56 S6        30.01R
WAUPACA        PTCLDY    65  47  52 S3        30.01R
SHAWANO        CLOUDY    63  47  55 CALM      29.99S
CLINTONVILLE   NOT AVBL
WAUTOMA        CLOUDY    66  46  48 S7        30.01S
$$

WIZ038-039-048-051-180000-
FOX VALLEY

CITY           SKY/WX    TMP DP  RH WIND       PRES   REMARKS
NWS GREEN BAY  CLOUDY    63  50  62 S5        30.01R
APPLETON       PTCLDY    63  45  51 SW7       30.00S
OSHKOSH        CLOUDY    63  48  58 S6        30.01R
FOND DU LAC    CLOUDY    66  44  45 SW5       30.02S
$$

WIZ022-050-052-180000-
EAST CENTRAL WISCONSIN

CITY           SKY/WX    TMP DP  RH WIND       PRES   REMARKS
EPHRAIM        FAIR      57  51  80 S6        30.00S
WASHINGTON ISL NOT AVBL
STURGEON BAY   CLEAR     57  51  80 S8        30.02R
MANITOWOC      CLOUDY    59  51  75 E3        30.03R
SHEBOYGAN      CLOUDY    63  48  58 SW5       30.03R
$$

LMZ563-521-522-541>543-180000-
LAKESHORE

STATION/POSITION TIME  TEMP    WIND        PRES    VSBY  WAVE
                       AIR SEA DIR/SP/G                  HT/PER
                 (UTC) (F)     (DEG/KT/KT) (MB)    (MI)  (FT/S)
SHEBOYGAN LKSHOR 2300   68     210/  5/  5 1016.5R
KEWAUNEE LKSHORE 2242   58     180/  8/  9 1015.9R
NORTHPORT PIER   2240   59     170/  4/  7 1015.6S
N MID LAKE BUOY  2250   60 59  190/ 17/ 21 1016.2S         4/ 6
S GREEN BAY BUOY 2300   60 58  170/  8/ 10 1015.6
MENOMINEE LKSHOR 2236   62     180/  7/ 10 1015.2R
$$




USA.gov is the U.S. government's official web portal to all federal, state and local government web resources and services.